Location: Helion Bumpstead
(52.0500°N, 0.4000°E)
Time: 11:11:57
(UTC+00:00)

Cosmos 1484 Rocket - Pass Details

Date: 15 November 2025
Orbit: 442 x 473 km, 97.6° (Epoch: 10 December)

Event Time Altitude Azimuth Distance (km) Brightness Sun altitude
Rises 05:52:59 0° 13° (NNE) 2,547 6.2 -13.0°
Reaches altitude 10° 05:55:03 10° 14° (NNE) 1,661 5.3 -12.7°
Maximum altitude 05:58:38 90° 291° (WNW) 483 2.5 -12.2°
Drops below altitude 10° 06:02:09 10° 195° (SSW) 1,634 5.2 -11.7°
Sets 06:04:11 0° 196° (SSW) 2,502 6.2 -11.4°
